Location: Albert Place
(40.7505°N, 111.9230°W)
Time: 00:01:20
(UTC+00:00)

Meteor 2-20 Rocket - Pass Details

Date: 13 December 2025
Orbit: 871 x 1024 km, 82.5° (Epoch: 14 January)

Event Time Altitude Azimuth Distance (km) Brightness Sun altitude
Exits shadow 12:38:26 - 353° (N) 3,196 7.0 -22.9°
Reaches altitude 10° 12:40:09 10° 355° (N) 2,534 6.5 -22.5°
Maximum altitude 12:45:52 78° 82° (E) 893 4.3 -21.5°
Drops below altitude 10° 12:51:34 10° 169° (S) 2,522 7.0 -20.4°
Sets 12:54:01 0° 170° (S) 3,467 7.7 -20.0°
